This is the latest recevied weather packets stored in our database for station/object W1GK. If no packets are shown the sender has not sent any weather packets the latest 10 day(s).
| Time | Temp. | Humidity | Pressure | Rain* | Wind** | Luminosity | Snow |
|---|---|---|---|---|---|---|---|
| 1777956601 | 17.78° C | 30% | 1010.2 hPa | 0 mm | - | 0 W/m² | - |
| 1777956000 | 17.78° C | 30% | 1010.1 hPa | 0 mm | - | 0 W/m² | - |
| 1777955401 | 18.33° C | 29% | 1009.9 hPa | 0 mm | - | 0 W/m² | - |
| 1777954801 | 18.33° C | 29% | 1009.8 hPa | 0 mm | - | 0 W/m² | - |
| 1777954200 | 18.89° C | 28% | 1009.7 hPa | 0 mm | - | 0 W/m² | - |
| 1777953602 | 18.89° C | 28% | 1009.6 hPa | 0 mm | - | 0 W/m² | - |
| 1777953000 | 18.89° C | 27% | 1009.5 hPa | 0 mm | - | 0 W/m² | - |
| 1777952400 | 19.44° C | 27% | 1009.3 hPa | 0 mm | - | 0 W/m² | - |
| 1777951801 | 19.44° C | 27% | 1008.8 hPa | 0 mm | - | 0 W/m² | - |
| 1777951202 | 19.44° C | 27% | 1008.5 hPa | 0 mm | - | 0 W/m² | - |
| 1777950600 | 20° C | 26% | 1008.2 hPa | 0 mm | - | 0 W/m² | - |
| 1777949999 | 20° C | 25% | 1008.2 hPa | 0 mm | - | 0 W/m² | - |
| 1777949400 | 20° C | 25% | 1008.1 hPa | 0 mm | - | 0 W/m² | - |
| 1777948800 | 20.56° C | 24% | 1008 hPa | 0 mm | - | 0 W/m² | - |
| 1777948199 | 20.56° C | 23% | 1007.9 hPa | 0 mm | - | 0 W/m² | - |
| 1777947602 | 21.11° C | 23% | 1007.9 hPa | 0 mm | - | 9 W/m² | - |
| 1777947000 | 21.11° C | 22% | 1007.9 hPa | 0 mm | - | 14 W/m² | - |
| 1777946400 | 21.67° C | 21% | 1008 hPa | 0 mm | - | 18 W/m² | - |
| 1777945801 | 21.67° C | 20% | 1008 hPa | 0 mm | - | 21 W/m² | - |
| 1777945200 | 22.22° C | 20% | 1008 hPa | 0 mm | - | 25 W/m² | - |
| 1777944599 | 22.22° C | 19% | 1008 hPa | 0 mm | - | 153 W/m² | - |
| 1777943999 | 22.78° C | 19% | 1008.1 hPa | 0 mm | - | 185 W/m² | - |
| 1777943399 | 22.78° C | 19% | 1008 hPa | 0 mm | - | 216 W/m² | - |
| 1777942799 | 23.33° C | 18% | 1008.1 hPa | 0 mm | - | 257 W/m² | - |
| 1777942200 | 23.33° C | 19% | 1008 hPa | 0 mm | - | 304 W/m² | - |
* Rain latest hour (hover to see other rain measurements)
** Current wind speed in m/s (hover to see current wind gust speed)